CW5752 Weather Reports


time (UTC)temp
F
wind
direction
speed
knots
gust
knots
rain 1hr
in
rain 24hr
in
rain mn
in
humidity
%
barometer
mb
20260502205522 51 0.0 1.7 0.01 0.03 0.03 81 1018.7
20260502204522 50 0.0 0.9 0.03 0.03 0.03 79 1018.9
20260502203522 50 296 0.0 4.3 0.03 0.03 0.03 77 1019.0
20260502202522 50 296 1.7 4.3 0.03 0.03 0.03 77 1019.1
20260502201517 50 297 1.7 3.5 0.02 0.02 0.02 82 1019.2
20260502200522 49 296 3.5 5.2 0.02 0.02 0.02 82 1019.2
20260502195522 49 307 4.3 7.8 0.02 0.02 0.02 81 1019.1
20260502194542 50 318 5.2 8.7 0.00 0.00 0.00 75 1018.9
20260502193522 55 320 2.6 8.7 0.00 0.00 0.00 64 1018.6
20260502192522 57 255 0.0 4.3 0.00 0.00 0.00 57 1018.2
20260502191542 58 80 0.0 5.2 0.00 0.00 0.00 60 1018.1
20260502190516 60 343 0.9 3.5 0.00 0.00 0.00 53 1018.1
20260502185522 59 0 1.7 5.2 0.00 0.00 0.00 61 1018.3
20260502184522 58 356 0.9 5.2 0.00 0.00 0.00 62 1018.3
20260502183522 58 302 0.9 7.0 0.00 0.00 0.00 72 1018.4
20260502182522 53 324 0.0 3.5 0.00 0.00 0.00 66 1018.5
20260502181522 52 0.0 1.7 0.00 0.00 0.00 71 1018.4
20260502180537 52 329 1.7 6.1 0.00 0.00 0.00 70 1018.6
20260502163523 61 329 2.6 8.7 0.00 0.00 0.00 54 1017.9
20260502162522 62 325 1.7 6.1 0.00 0.00 0.00 56 1017.8
20260502161542 59 287 0.0 2.6 0.00 0.00 0.00 52 1017.9
20260502160522 58 257 0.9 3.5 0.00 0.00 0.00 57 1017.9
20260502151521 58 74 0.0 3.5 0.00 0.00 0.00 60 1017.5
20260502150522 57 75 0.9 4.3 0.00 0.00 0.00 60 1017.4
20260502130542 50 91 0.0 4.3 0.00 0.00 0.00 78 1017.3
20260502123521 48 329 0.0 1.7 0.00 0.00 0.00 84 1017.2
20260502122536 47 329 0.0 1.7 0.00 0.00 0.00 85 1017.1
20260502121542 46 329 0.0 1.7 0.00 0.00 0.00 86 1017.1
20260502120521 46 329 0.0 1.7 0.00 0.00 0.00 86 1017.1
20260502115521 46 0.0 0.0 0.00 0.00 0.00 87 1017.1
20260502114521 45 0.0 0.0 0.00 0.00 0.00 88 1017.1
20260502113521 44 0.0 0.0 0.00 0.00 0.00 89 1017.0
20260502112536 45 0.0 0.0 0.00 0.00 0.00 90 1017.1
20260502111516 44 0.0 0.0 0.00 0.00 0.00 90 1017.0
20260502110522 43 0.0 0.0 0.00 0.00 0.00 91 1017.0
20260502105522 43 0.0 0.0 0.00 0.00 0.00 91 1016.9
20260502104521 43 0.0 0.0 0.00 0.00 0.00 91 1016.8
20260502103521 43 0.0 0.0 0.00 0.00 0.00 91 1016.8
20260502102522 43 0.0 0.0 0.00 0.00 0.00 90 1016.8
20260502101516 43 0.0 0.0 0.00 0.00 0.00 91 1016.9
20260502100522 44 0.0 0.0 0.00 0.00 0.00 90 1016.8
20260502090516 43 0.0 0.0 0.00 0.00 0.00 91 1016.7
20260502071521 43 0.0 0.0 0.00 0.00 0.00 89 1016.8
20260502070521 43 0.0 0.0 0.00 0.00 0.00 89 1016.7
20260502065517 43 0.0 0.0 0.00 0.00 0.00 88 1016.8
20260502064536 43 0.0 0.0 0.00 0.00 0.00 87 1016.7
20260502063522 43 0.0 0.0 0.00 0.00 0.00 85 1016.7
20260502062522 44 0.0 0.0 0.00 0.00 0.00 86 1016.7
20260502061521 44 0.0 0.0 0.00 0.00 0.00 85 1016.7
20260502060521 44 0.0 0.0 0.00 0.00 0.00 83 1016.7
20260502055522 44 0.0 0.0 0.00 0.00 0.00 83 1016.8
20260502054516 44 0.0 0.0 0.00 0.00 0.00 83 1016.8
20260502053521 44 0.0 0.0 0.00 0.00 0.00 82 1016.8
20260502052522 44 0.0 0.0 0.00 0.00 0.00 83 1016.9
20260502051542 44 0.0 0.0 0.00 0.00 0.00 83 1016.8
20260502050521 45 0.0 0.0 0.00 0.00 0.00 82 1016.8
20260502045540 45 0.0 0.0 0.00 0.00 0.00 82 1016.8
20260502044540 45 0.0 0.0 0.00 0.00 0.00 83 1016.8
20260502043540 46 0.0 0.0 0.00 0.00 0.00 83 1016.9
20260502042520 46 0.0 0.0 0.00 0.00 0.00 83 1017.0
20260502041641 46 0.0 0.0 0.00 0.00 0.00 82 1017.0
20260502040522 46 0.0 0.0 0.00 0.00 0.00 82 1017.1
20260502035535 47 0.0 0.0 0.00 0.00 0.00 81 1017.1
20260502034521 47 0.0 0.0 0.00 0.00 0.00 78 1017.1
20260502033523 47 0.0 0.0 0.00 0.00 0.00 80 1017.2
20260502032522 47 0.0 0.0 0.00 0.00 0.00 78 1017.2
20260502031522 48 0.0 0.0 0.00 0.00 0.00 77 1017.3
20260502030517 49 0.0 0.0 0.00 0.00 0.00 75 1017.5
20260502025522 49 0.0 0.0 0.00 0.00 0.00 74 1017.5
20260502024522 50 0.0 0.0 0.00 0.00 0.00 75 1017.4
20260502023522 50 0.0 0.0 0.00 0.00 0.00 75 1017.4
20260502022522 50 0.0 0.0 0.00 0.00 0.00 73 1017.3
20260502021542 50 0.0 0.0 0.00 0.00 0.00 73 1017.2
20260502020517 51 0.0 0.0 0.00 0.00 0.00 72 1017.0
20260502015520 51 0.0 0.0 0.00 0.00 0.00 64 1017.0
20260502014522 51 0.0 0.0 0.00 0.00 0.00 64 1016.8
20260502013542 52 0.0 0.0 0.00 0.00 0.00 61 1016.6
20260502012522 53 0.0 0.0 0.00 0.00 0.00 56 1016.3
20260502011542 53 0.0 0.0 0.00 0.00 0.00 61 1016.1
20260502010522 54 0.0 0.0 0.00 0.00 0.00 53 1016.0
20260502005517 54 0.0 0.0 0.00 0.00 0.00 53 1016.0
20260502004522 55 0.0 0.0 0.00 0.00 0.00 52 1016.0
20260502003522 56 0.0 0.0 0.00 0.00 0.00 52 1015.9
20260502002522 57 327 0.0 1.7 0.00 0.00 0.00 51 1015.8
20260502001522 58 0.0 0.0 0.00 0.00 0.00 49 1015.9
20260502000522 59 0.0 1.7 0.00 0.00 0.00 48 1015.8
20260501235522 61 327 0.0 2.6 0.00 0.00 0.00 41 1015.7
20260501234518 61 327 0.0 3.5 0.00 0.00 0.00 44 1015.6
20260501233522 61 334 0.9 5.2 0.00 0.00 0.00 40 1015.4
20260501232522 62 338 1.7 7.0 0.00 0.00 0.00 41 1015.4
20260501231522 62 327 0.9 4.3 0.00 0.00 0.00 40 1015.3
20260501230522 62 336 0.9 4.3 0.00 0.00 0.00 41 1015.1
20260501225522 62 336 1.7 6.1 0.00 0.00 0.00 41 1015.0
20260501224517 62 339 1.7 6.1 0.00 0.00 0.00 43 1015.1
20260501223517 63 300 0.9 4.3 0.00 0.00 0.00 41 1015.3
20260501222522 62 340 1.7 4.3 0.00 0.00 0.00 40 1015.5
20260501221522 62 322 1.7 7.8 0.00 0.00 0.00 40 1015.6
20260501220542 61 331 2.6 6.1 0.00 0.00 0.00 41 1015.7
20260501215520 61 307 0.9 3.5 0.00 0.00 0.00 41 1015.8
20260501214522 61 327 1.7 5.2 0.00 0.00 0.00 41 1015.9
20260501213537 62 341 2.6 7.0 0.00 0.00 0.00 42 1015.9
20260501212522 63 343 2.6 7.8 0.00 0.00 0.00 39 1016.1
20260501211522 63 348 1.7 7.0 0.00 0.00 0.00 45 1016.2
20260501210522 62 331 1.7 5.2 0.00 0.00 0.00 44 1016.3